Theta_e
349 347 347 348 345 342 340 341 341 337 338 338 336 334 333 329 325 320 316 317 318 326 332 333 334 334 336 338 340 341 341 339 338 336 336 339 342 343 343 344 344 344 344 344 344 344 343 342 342 341 342 342 340 340 340 340 339 339 339 339 339 338 336 336 335 334 332 331 333 336 336 336 336 333 332 331 330 331 330 330 331 331 331 331 331
347 347 347 347 346 343 340 341 340 337 339 338 335 334 332 328 325 320 317 318 321 328 332 332 333 334 337 339 340 341 342 342 342 342 341 342 343 343 344 344 344 344 344 345 343 343 342 342 342 341 341 340 338 338 338 338 338 338 337 337 337 336 333 332 331 330 331 332 334 335 334 334 334 333 332 331 330 330 331 331 331 331 331 331 331
346 347 347 347 346 343 340 340 340 338 339 338 335 335 332 328 325 321 318 319 323 330 333 333 334 337 339 340 341 342 342 343 343 343 343 343 344 344 344 344 344 344 344 344 343 342 341 341 341 340 340 338 336 335 336 337 337 337 337 337 336 334 333 332 330 327 329 330 331 332 333 332 333 333 332 331 330 330 330 331 331 331 331 331 331
346 346 346 348 346 343 341 340 340 339 339 338 335 334 331 328 325 321 321 321 326 332 334 334 336 339 340 341 343 343 343 344 343 344 344 344 344 344 344 344 344 344 344 343 343 342 341 341 340 339 338 336 335 333 335 337 337 337 337 337 336 335 334 334 332 330 328 329 331 332 333 333 334 333 331 330 331 331 331 331 331 331 331 331 331
346 346 346 347 346 344 341 341 340 340 340 338 336 334 331 328 325 320 323 326 328 333 335 337 338 339 340 342 343 344 344 344 344 344 344 344 344 344 344 344 344 344 343 343 343 342 341 341 340 338 337 335 331 329 335 337 336 336 337 337 337 335 336 336 335 334 331 330 332 333 334 334 335 334 333 332 333 333 332 332 331 331 331 331 330
345 345 345 345 346 344 342 342 341 341 340 338 336 334 331 328 325 320 325 328 331 336 338 339 340 340 341 343 343 344 344 344 344 344 344 344 344 344 344 343 343 343 343 343 342 341 341 340 340 339 336 334 329 329 334 335 334 335 336 337 337 337 337 338 338 336 330 328 330 331 333 334 334 334 333 333 332 332 332 332 331 331 330 331 331
344 345 343 342 344 344 342 342 342 342 340 337 336 335 331 328 325 322 325 330 334 338 339 340 341 341 342 343 343 344 343 344 344 344 344 344 344 343 343 343 343 343 343 342 342 341 341 340 340 339 336 334 332 331 334 333 332 333 333 335 336 336 336 336 337 338 331 328 330 330 331 332 333 333 333 333 333 332 332 332 331 330 330 331 332
344 344 342 341 343 343 343 342 343 342 339 337 337 335 331 327 325 324 327 333 337 338 339 340 341 342 342 343 343 343 343 343 343 343 343 343 343 343 343 343 343 343 343 342 341 339 337 334 332 332 333 334 334 334 334 334 333 332 332 332 332 332 332 333 334 337 333 329 330 331 331 331 332 333 332 332 332 332 332 331 331 330 330 330 330
342 342 341 340 341 343 343 343 343 341 339 337 337 336 331 327 326 325 329 335 338 338 338 340 341 342 342 343 343 343 343 343 343 342 342 342 342 342 342 341 342 341 341 341 339 338 335 328 323 323 324 326 327 328 330 331 332 331 332 330 329 330 332 333 333 335 332 329 329 330 331 331 332 332 331 330 330 330 330 330 331 331 330 330 329
338 341 341 340 342 342 342 342 342 341 339 338 337 335 331 328 325 326 332 337 337 337 339 339 341 341 342 342 343 343 343 343 342 342 342 341 341 340 339 339 341 341 340 340 338 337 334 329 325 322 320 319 318 319 321 323 326 327 328 329 330 332 332 333 334 332 331 329 328 331 332 332 333 332 329 328 330 330 329 330 330 331 331 330 329
337 341 341 340 341 342 341 342 341 340 340 338 338 335 331 329 327 329 335 338 337 337 338 338 339 341 341 342 342 342 342 342 342 342 341 341 340 338 336 335 337 339 338 337 335 333 328 325 324 322 321 319 316 316 317 320 323 326 328 331 333 333 332 332 332 331 331 330 329 332 334 333 333 333 330 328 329 330 330 330 330 330 331 330 330
338 340 340 342 342 341 340 340 340 340 340 338 338 336 332 330 331 333 336 337 337 339 338 337 339 340 341 342 342 342 342 342 341 341 340 340 339 337 334 331 332 333 331 329 329 327 324 322 321 320 319 317 316 318 320 322 325 328 331 332 334 333 332 331 331 330 331 329 328 331 332 332 334 333 330 328 329 330 330 330 330 330 330 330 329
340 341 342 343 342 341 340 339 340 340 339 338 338 335 331 331 333 335 336 337 338 339 338 338 339 340 341 342 342 341 341 342 341 341 340 339 338 337 333 330 329 327 325 325 326 326 324 321 318 317 317 317 320 323 324 326 328 331 332 333 335 334 332 331 331 330 330 327 327 329 331 332 333 332 330 330 329 329 330 330 330 329 329 329 328
343 342 342 342 342 341 340 340 339 338 338 338 337 332 329 330 333 336 337 337 338 339 339 338 338 339 340 340 341 341 340 341 340 339 339 338 337 336 333 329 328 326 325 325 327 327 324 317 314 315 315 319 325 326 327 329 331 332 332 334 335 334 333 332 332 331 330 327 327 330 332 332 331 331 330 330 330 329 330 330 329 329 329 328 328
342 342 342 342 342 342 340 340 338 337 336 335 333 329 328 329 331 334 335 337 338 338 338 338 338 338 339 339 340 340 339 339 339 339 338 338 337 336 334 330 328 326 324 326 328 328 325 317 312 313 315 322 326 328 329 330 331 332 332 334 335 335 333 333 333 333 331 329 329 332 332 331 330 331 330 330 330 330 330 329 329 329 328 328 329
339 339 342 342 341 341 340 339 337 334 332 330 329 328 329 330 331 332 333 335 337 337 337 337 338 338 339 339 339 338 339 339 339 338 338 338 336 335 333 329 327 326 325 327 328 329 327 318 312 312 316 324 328 329 331 331 332 332 333 334 335 335 334 334 334 332 330 329 330 331 331 331 330 331 330 330 330 330 330 329 329 329 328 328 328
337 339 341 341 340 340 339 338 336 333 330 329 329 330 331 332 333 333 332 333 336 337 336 336 337 338 338 338 338 338 338 337 337 337 337 336 336 334 331 329 327 325 325 328 329 329 328 319 312 312 317 326 330 331 331 332 332 332 333 334 335 335 334 334 333 332 331 329 329 330 329 330 330 330 330 329 329 330 330 329 328 328 328 328 328
339 340 340 339 338 338 338 338 336 334 333 332 332 332 332 333 334 334 332 333 334 335 336 335 335 336 337 336 336 336 336 336 336 335 335 334 334 333 330 329 327 326 327 329 329 329 328 319 312 312 317 326 331 331 332 332 332 333 333 334 335 335 334 334 333 332 331 328 328 328 328 329 330 330 329 329 329 329 328 328 328 328 328 327 327
340 338 338 336 335 335 336 336 335 334 334 333 333 332 331 332 333 333 332 331 331 331 332 332 333 335 335 335 334 334 334 334 334 333 332 331 332 332 330 329 328 327 329 329 329 329 328 320 312 312 315 325 331 331 332 332 332 333 333 334 334 334 334 333 332 331 330 328 327 326 328 330 330 329 329 328 329 329 328 328 328 328 327 326 326
338 337 337 334 333 334 335 335 335 334 334 333 332 331 331 331 332 332 331 332 333 332 331 330 332 334 334 334 333 333 332 331 331 329 330 330 330 332 330 329 329 329 330 330 330 329 328 321 312 312 314 322 330 331 332 332 332 333 334 334 334 334 333 333 332 331 330 329 327 326 328 329 329 329 329 329 328 328 328 328 328 327 326 326 325
338 338 337 334 334 335 334 335 335 334 334 332 332 332 334 333 333 333 334 335 337 336 333 332 333 333 334 334 333 332 330 328 326 324 326 329 331 331 330 329 329 330 330 330 330 330 328 323 314 311 313 320 329 332 332 333 333 333 334 334 334 334 333 333 333 332 331 330 328 326 327 328 329 329 329 328 328 328 328 327 327 327 326 325 324
340 339 338 335 334 335 335 335 334 334 333 333 333 333 335 335 335 335 336 337 339 338 334 335 335 335 335 334 333 332 330 327 326 324 323 326 331 332 330 329 329 329 330 330 331 330 329 326 316 311 313 319 328 332 332 333 333 333 334 333 334 334 334 334 333 332 331 328 325 323 326 328 329 329 328 328 328 328 327 327 326 325 325 325 324
341 340 339 337 336 337 336 336 335 335 333 332 333 335 335 335 335 334 335 336 339 339 335 335 335 335 336 334 334 334 333 333 333 332 329 326 327 330 330 329 328 328 329 329 330 331 330 328 320 312 313 319 327 332 332 333 333 333 333 333 334 334 333 333 333 332 330 328 323 321 326 328 328 328 328 328 327 327 327 326 326 326 325 325 324
342 341 339 337 338 339 338 337 338 336 332 330 332 334 335 335 334 332 333 335 337 338 336 335 334 334 334 333 335 338 338 338 338 338 337 332 326 325 328 329 329 328 328 328 328 330 331 330 325 317 317 324 329 331 332 331 331 331 331 332 333 333 333 332 332 331 330 328 323 321 324 326 327 328 328 328 327 327 326 326 326 325 324 324 324
342 341 339 339 340 340 339 339 338 338 333 328 330 333 334 334 333 333 333 333 334 335 335 334 333 333 334 333 335 338 339 339 339 338 339 337 331 326 324 326 328 329 328 328 327 328 329 330 329 323 321 327 330 330 330 329 330 329 329 332 332 333 333 332 332 331 330 328 324 321 321 324 328 329 328 328 327 327 327 326 325 325 324 324 324
342 341 341 340 341 340 339 340 339 339 333 327 330 333 333 333 333 334 334 332 333 333 334 334 333 334 335 335 336 338 338 339 339 339 339 339 336 333 327 322 323 327 329 329 328 327 328 329 330 329 326 327 327 327 328 328 331 331 330 332 332 332 333 333 332 331 330 328 325 321 321 325 327 328 328 328 327 327 326 326 325 324 324 324 324
341 341 341 341 341 340 340 340 340 338 331 327 333 335 334 332 332 335 334 332 332 331 332 333 333 334 336 336 336 337 338 338 338 338 338 339 338 337 332 324 319 322 327 329 329 328 328 328 329 330 329 330 329 329 331 332 334 334 332 333 332 332 333 333 332 331 330 329 326 320 320 324 325 327 328 328 328 327 326 326 325 324 324 324 324
341 342 341 342 341 341 341 341 340 338 332 330 335 338 336 333 333 335 334 332 332 332 333 334 335 336 336 337 336 336 337 338 338 338 338 338 338 338 336 332 322 318 322 327 329 328 328 328 330 331 331 331 331 332 333 335 335 335 334 333 333 332 332 332 332 331 330 330 326 321 321 322 325 327 327 328 328 327 326 326 325 325 324 324 324
341 342 342 341 341 341 341 340 340 339 336 333 335 338 339 337 336 337 336 335 335 335 335 336 336 337 337 337 336 336 337 338 338 338 338 338 338 338 337 336 331 324 320 323 327 327 328 331 333 334 334 334 333 334 334 334 335 335 334 333 334 333 332 332 332 332 330 330 328 324 323 323 326 327 327 328 328 327 327 326 325 325 325 325 325
342 343 342 342 342 342 341 340 340 339 338 336 335 337 338 338 337 338 338 337 337 337 337 337 337 337 337 337 337 337 337 338 338 338 338 338 338 338 337 337 336 332 327 324 325 326 328 331 333 333 334 335 335 336 336 335 335 335 335 333 333 333 332 332 332 332 331 330 329 327 324 323 326 326 326 328 328 327 327 326 326 325 326 326 325
342 343 343 343 342 342 341 341 340 340 338 338 338 337 337 338 338 338 338 338 338 338 337 337 337 338 338 338 337 337 337 337 338 338 338 338 338 338 338 337 337 336 334 331 328 326 326 329 331 332 333 335 335 336 336 335 335 335 334 332 332 332 332 332 332 332 331 331 330 327 325 324 325 324 325 328 328 327 327 326 326 326 326 326 325
343 342 342 342 342 342 341 341 341 340 339 339 339 338 337 338 339 339 339 339 338 339 338 338 338 338 338 338 338 337 337 337 337 338 338 338 338 337 337 337 337 337 336 335 333 330 329 329 330 331 333 334 334 335 335 335 335 334 333 332 332 332 332 332 331 331 331 331 330 328 326 325 324 323 325 327 326 325 327 327 327 327 327 326 325
342 342 342 342 342 342 341 341 340 340 340 340 340 339 338 338 339 339 339 339 339 339 339 339 338 338 338 338 338 337 336 337 338 337 337 337 337 337 337 336 336 337 337 336 335 334 333 331 330 330 331 332 333 333 333 334 334 334 333 333 332 332 332 332 331 331 331 331 330 329 328 326 323 321 323 323 323 325 327 327 328 328 327 325 324
342 342 342 342 342 342 341 341 340 340 340 340 340 340 339 339 339 339 338 338 338 338 338 338 337 337 337 337 337 337 337 337 337 337 336 336 336 336 336 335 336 336 337 336 336 335 335 334 333 332 331 331 332 332 332 332 333 333 332 333 333 332 331 331 331 331 331 331 330 330 328 325 321 319 318 319 322 326 327 327 328 328 328 326 324
341 341 341 341 342 342 341 340 340 340 340 341 340 340 340 339 339 339 338 338 338 338 338 337 337 337 337 337 336 336 337 336 336 337 336 336 336 336 335 335 335 336 336 336 336 336 336 335 335 334 333 333 332 331 331 331 332 332 332 332 333 333 331 331 331 331 332 332 331 330 329 325 319 316 315 315 319 324 326 327 329 329 328 326 325
341 341 340 340 341 341 340 340 340 341 341 341 341 340 339 339 339 339 338 338 338 338 338 337 337 337 337 337 337 337 336 336 337 337 337 336 336 336 335 335 335 335 335 335 336 336 335 335 335 335 334 334 333 332 331 331 333 333 332 333 333 333 332 331 331 332 333 333 331 330 329 325 319 316 314 314 317 320 324 326 328 329 327 326 327
341 341 340 340 340 340 340 340 340 341 341 341 341 340 340 340 340 339 339 338 338 338 338 338 338 337 337 337 337 337 337 336 337 337 337 337 336 336 335 335 335 335 335 335 334 335 335 334 334 334 334 334 334 333 332 331 333 334 334 333 334 333 332 331 331 331 331 332 331 331 329 326 321 317 316 316 317 321 324 326 328 329 327 326 328
340 340 340 340 340 340 340 339 339 340 340 340 340 340 340 340 340 339 338 338 338 338 338 338 337 337 337 336 337 337 337 337 337 338 338 337 337 337 336 335 335 335 335 335 334 334 334 334 334 334 334 335 334 334 333 332 332 333 334 334 334 333 332 331 331 329 329 330 330 330 330 327 324 321 319 319 320 323 327 328 329 330 328 327 328
339 338 338 338 338 339 338 338 338 338 339 339 339 339 339 339 339 338 337 337 338 338 338 337 337 336 336 336 336 336 336 337 338 338 338 338 338 337 337 337 336 336 335 335 335 334 334 334 334 334 335 335 334 334 334 333 333 333 333 334 333 332 332 331 331 330 329 328 328 329 329 328 326 324 323 324 323 324 328 328 328 330 329 328 327
338 338 337 338 338 338 338 338 338 338 338 338 338 338 338 338 338 338 338 338 338 338 338 337 336 336 336 336 335 335 335 336 336 337 338 338 338 338 338 338 337 337 336 336 336 335 334 334 334 334 335 335 334 334 334 333 333 333 332 332 333 332 332 331 330 330 330 329 329 329 328 327 328 327 326 327 325 325 328 328 328 329 329 328 327
336 337 337 337 338 338 339 338 338 338 338 338 338 338 338 338 338 338 338 338 338 338 338 337 336 336 336 336 336 335 335 336 336 336 337 338 338 338 338 338 338 337 337 336 335 335 335 335 335 335 335 335 335 335 335 334 333 332 332 332 333 332 332 332 331 330 329 329 329 329 328 328 329 329 329 330 328 327 328 329 328 328 328 328 327
333 334 334 335 337 338 338 337 337 337 337 337 337 338 338 338 338 338 338 338 338 338 337 337 336 336 335 335 335 335 336 336 336 336 337 337 337 338 338 337 337 337 337 336 336 335 336 336 336 335 336 335 335 335 334 333 332 332 331 331 332 332 331 331 331 330 329 329 330 329 329 329 329 329 330 331 330 330 330 330 330 329 328 328 328
330 331 332 333 334 334 334 333 334 335 335 336 336 337 337 338 338 338 338 338 337 336 336 336 336 335 335 335 335 335 335 336 336 337 337 337 337 337 337 335 335 336 336 336 335 335 336 336 336 336 336 335 335 335 334 334 333 331 330 330 331 332 332 331 330 330 330 330 330 330 330 330 330 330 330 331 331 331 331 331 331 330 329 328 328
328 328 329 330 330 330 330 331 331 331 332 333 334 335 336 337 338 338 338 338 337 336 336 336 335 335 335 335 335 335 336 336 335 335 335 336 336 337 336 335 335 335 335 335 336 336 336 336 335 336 336 335 334 334 334 334 333 331 329 330 330 332 334 332 330 330 331 330 331 331 331 330 330 330 331 331 332 332 332 331 331 331 330 329 328
325 326 326 327 327 327 328 328 329 329 329 331 332 333 334 335 336 336 337 336 336 336 336 336 335 335 335 335 335 335 335 335 335 334 335 335 336 336 336 336 336 335 334 335 335 335 335 336 336 336 335 335 334 334 334 334 334 333 331 331 330 332 333 331 330 332 331 330 332 332 332 331 331 331 331 332 332 332 332 331 331 331 331 330 327
324 324 324 325 325 325 326 327 327 327 328 328 329 331 332 333 334 334 334 334 334 334 335 335 335 334 334 334 334 334 334 334 334 335 335 335 335 335 335 335 335 334 334 334 334 334 334 334 335 335 334 334 333 333 333 333 333 333 332 332 331 331 331 330 331 333 332 331 331 332 332 331 331 331 332 332 332 332 332 330 330 330 331 331 328
323 323 323 323 323 323 324 325 325 326 326 326 327 328 329 330 330 330 331 331 331 331 332 333 333 333 334 334 334 334 333 334 334 334 334 334 334 335 335 334 333 333 333 333 333 333 333 333 334 333 333 334 332 331 331 332 332 332 332 332 330 329 330 330 331 333 334 332 331 331 331 330 330 331 332 332 333 332 332 330 330 330 330 331 330
322 322 322 322 322 322 323 323 324 324 325 325 326 326 327 327 327 327 328 328 328 328 329 329 330 331 332 332 333 333 333 333 333 333 333 333 334 334 334 334 334 334 334 333 333 333 333 333 333 333 333 333 332 331 331 331 330 330 331 331 330 329 329 329 329 330 332 333 332 330 330 330 329 329 330 331 331 331 331 330 330 330 330 331 330
321 321 320 321 321 321 321 321 322 322 323 324 324 324 325 325 325 325 325 326 326 327 327 327 327 328 328 329 330 331 331 331 331 332 332 333 333 333 334 334 335 334 333 333 333 333 333 333 332 332 332 332 331 330 330 330 330 329 329 330 330 329 329 328 328 328 329 331 332 331 330 330 329 328 328 328 329 330 330 330 330 330 330 330 329
319 320 320 320 320 320 320 320 320 320 321 322 323 323 323 323 323 323 323 324 324 325 325 325 325 325 325 326 327 328 329 329 330 330 331 332 332 333 333 334 334 334 334 334 333 333 333 333 332 332 331 330 330 330 330 329 329 329 329 329 329 328 328 328 328 328 327 328 330 331 330 331 331 330 329 329 329 330 330 329 330 330 329 329 328
318 319 319 319 319 320 319 319 319 318 319 320 321 322 321 321 321 321 321 322 322 323 323 322 322 322 323 323 325 325 326 327 328 329 329 330 330 331 332 332 333 334 333 333 333 333 333 333 333 332 331 330 330 330 330 330 329 329 329 329 329 328 328 328 328 329 328 328 328 329 330 331 331 331 330 331 331 330 330 329 329 329 329 329 328
Wind_Speed
16 18 19 18 18 16 16 18 17 18 17 16 15 14 14 15 15 16 19 21 22 24 24 23 22 22 21 21 21 19 18 18 18 19 18 18 17 16 16 16 15 15 15 15 15 15 15 15 15 15 16 15 15 16 16 16 16 16 16 16 16 17 17 15 14 14 14 16 16 17 16 16 16 15 16 17 17 18 18 18 19 19 19 18 18
20 19 19 18 18 17 17 17 18 18 17 16 15 14 14 15 15 16 19 21 22 24 23 22 22 21 21 21 20 19 18 18 19 19 18 17 17 16 16 16 16 15 15 15 15 15 16 16 15 15 15 15 16 16 17 17 17 17 16 16 17 18 17 16 15 13 13 16 16 16 15 15 15 15 16 17 17 17 18 18 19 19 19 18 18
23 21 19 19 18 17 17 17 19 18 17 16 15 14 14 15 14 16 19 20 22 23 22 21 21 21 21 21 21 20 20 19 19 19 18 17 17 16 16 16 15 15 15 15 15 16 16 16 15 15 15 16 17 17 17 17 17 17 16 15 16 17 17 17 17 16 14 16 17 17 16 16 16 16 16 17 17 18 18 18 18 18 18 18 18
25 23 20 20 18 18 17 18 18 18 17 16 15 14 14 14 14 15 18 20 21 21 21 21 21 21 21 21 20 20 20 19 19 19 18 17 16 16 16 16 15 15 15 15 16 16 16 16 15 14 14 17 18 17 16 15 16 16 15 14 16 17 17 18 20 19 18 18 19 18 18 17 17 16 16 17 19 18 18 18 18 18 17 17 17
27 23 22 21 19 18 17 19 18 18 17 16 16 14 14 14 14 14 17 19 20 20 21 21 20 21 20 20 20 19 19 19 19 18 18 17 16 16 16 15 15 15 15 15 15 16 16 15 15 14 15 18 18 17 14 14 16 15 13 13 14 16 17 18 19 18 17 18 18 18 18 17 17 16 16 17 18 17 17 18 17 18 17 16 16
27 24 23 21 20 19 18 19 18 17 16 16 16 14 14 13 14 14 17 19 19 19 19 20 19 20 19 19 19 19 19 19 19 18 18 17 16 16 16 15 15 15 15 14 15 16 15 15 14 13 15 18 18 16 13 13 14 14 13 12 12 14 14 12 13 15 14 15 16 17 16 17 17 16 15 16 16 16 16 16 17 16 16 16 16
27 25 23 22 21 19 18 19 18 17 17 17 16 14 14 13 14 15 17 19 18 18 18 19 19 19 19 18 18 18 18 18 18 18 18 18 17 16 15 15 14 14 14 14 14 14 13 12 11 12 14 17 17 15 12 11 12 12 11 10 10 10 9 5 6 11 12 14 16 16 15 16 17 16 15 15 15 15 15 15 15 14 15 16 16
26 24 23 23 20 19 18 18 18 18 17 16 15 15 14 13 14 16 18 18 18 18 18 19 18 18 18 18 18 18 18 18 18 18 18 17 16 15 14 14 13 13 13 12 11 11 10 9 9 11 13 14 14 13 11 10 9 8 8 8 8 6 4 1 4 8 9 12 15 15 14 15 15 15 15 14 15 15 14 14 15 14 15 16 15
25 24 24 22 20 19 18 18 18 17 17 16 15 15 14 14 14 16 18 18 17 18 18 18 18 17 17 17 17 18 17 17 18 18 17 16 15 14 13 12 12 11 10 10 9 8 7 7 9 10 10 10 10 10 9 9 7 6 5 6 7 8 6 3 8 12 11 12 15 14 12 13 15 14 13 13 14 13 14 15 15 15 15 15 15
26 25 24 22 21 20 19 19 18 18 17 16 15 15 14 14 14 16 17 17 16 17 17 16 16 16 16 16 16 17 17 17 17 17 16 15 14 12 11 10 10 10 9 8 8 8 7 7 7 8 8 7 7 9 10 10 8 7 6 7 9 10 9 9 13 15 15 14 14 13 12 13 13 12 10 12 13 12 13 15 15 14 14 15 16
25 25 24 23 22 20 20 19 18 18 16 16 15 15 15 14 14 15 16 17 16 16 15 14 15 16 16 15 15 15 16 16 15 15 15 14 12 10 9 9 8 9 8 7 7 8 7 6 6 7 6 5 8 10 11 11 10 9 8 9 10 11 12 13 14 15 15 13 13 13 12 12 12 11 10 12 13 13 13 14 14 14 14 14 15
25 25 24 23 21 20 19 18 18 17 16 16 15 15 15 14 14 15 16 17 17 16 15 15 15 15 15 14 14 14 14 14 14 13 13 12 10 9 9 8 8 7 7 7 8 8 7 5 5 6 6 7 11 12 12 11 10 9 9 9 10 12 13 13 13 13 13 11 12 13 12 12 12 10 9 11 13 13 13 13 13 13 13 13 13
26 24 23 22 21 19 18 18 18 17 16 16 15 15 15 15 14 14 15 16 18 17 15 15 15 15 15 14 13 13 13 13 13 12 11 10 9 8 9 8 8 7 7 8 8 7 6 5 6 7 8 12 15 14 12 11 10 9 9 10 11 13 13 11 11 11 10 9 12 13 12 12 11 9 8 11 12 12 12 11 12 12 12 12 12
25 23 23 22 20 18 18 17 17 16 15 16 15 15 15 15 14 15 16 17 18 17 15 15 15 15 14 13 13 12 12 12 11 10 9 8 7 7 7 7 7 7 7 7 8 7 7 7 7 9 11 15 16 14 13 11 10 8 8 10 12 14 13 11 10 8 8 10 13 14 12 11 9 9 9 10 11 11 12 11 11 12 11 11 11
24 24 23 21 20 18 17 17 16 16 15 16 15 14 14 15 15 17 17 18 17 16 16 16 15 15 14 13 12 11 11 10 9 7 7 7 7 6 6 7 6 6 6 6 7 7 8 9 9 10 14 17 16 14 13 11 9 8 9 10 10 14 16 12 10 9 9 11 14 14 12 10 9 8 9 10 10 11 11 11 11 11 11 11 10
24 24 22 21 19 18 16 15 16 15 15 15 13 13 14 14 16 17 17 18 17 15 15 16 15 15 14 12 11 10 9 8 7 6 6 6 5 5 5 6 6 6 6 6 6 7 8 8 9 11 16 18 16 14 13 10 8 8 9 9 8 14 17 14 11 10 10 12 14 14 13 11 10 10 10 11 10 10 10 10 10 10 10 10 9
24 24 22 20 19 18 16 15 16 15 15 14 13 13 13 15 17 17 17 17 17 15 15 15 15 15 13 11 11 10 9 7 6 5 4 4 4 5 6 6 6 6 5 6 5 6 7 8 9 10 16 18 15 14 12 10 8 9 10 9 7 14 16 14 12 10 9 11 13 14 13 12 11 10 10 10 10 9 9 9 9 9 9 9 9
24 23 22 20 18 18 17 16 16 15 14 13 13 13 14 16 17 16 16 16 15 14 14 14 14 14 12 11 10 9 8 6 6 5 4 4 4 5 7 6 6 6 5 5 5 6 7 8 9 9 15 17 16 14 11 9 8 9 10 10 8 13 16 13 10 9 9 9 11 12 12 12 11 10 11 10 9 9 9 9 9 9 9 9 9
23 22 22 20 18 18 18 16 16 15 14 14 14 14 14 16 17 16 16 15 14 13 12 13 14 13 11 11 10 9 7 6 6 6 5 5 5 6 8 8 7 6 4 4 5 5 7 8 8 9 13 17 16 14 11 8 8 9 12 11 10 12 14 12 9 8 8 8 9 10 12 12 10 10 11 10 9 9 9 9 8 8 8 8 8
21 21 20 19 19 19 18 17 15 14 14 14 14 15 14 14 16 16 16 16 14 12 11 13 14 12 11 11 9 8 7 6 6 5 5 5 7 8 9 8 8 7 5 4 5 5 6 7 8 8 11 15 16 13 10 8 7 10 12 11 9 12 14 11 9 8 7 7 7 9 11 12 11 11 10 10 10 9 9 8 8 8 8 7 8
19 18 18 17 18 18 17 16 15 14 13 14 14 15 14 14 15 15 15 14 13 11 11 12 13 12 11 10 9 8 6 5 5 5 4 5 7 8 9 9 8 7 5 4 4 5 5 6 7 8 10 15 16 13 10 8 8 9 10 9 7 9 12 10 8 7 5 5 6 8 10 11 12 11 10 10 9 9 9 8 8 8 8 7 8
20 18 16 16 17 17 16 16 14 13 13 13 14 15 15 14 15 15 14 14 13 12 11 11 11 11 10 9 8 7 6 6 4 3 3 4 6 8 10 9 8 7 6 4 4 4 4 5 6 7 10 14 16 13 11 9 8 8 6 6 5 5 9 9 7 5 4 4 4 7 9 11 11 11 11 10 9 9 8 8 7 8 8 8 8
20 19 17 17 18 17 16 16 14 13 13 13 14 14 14 14 14 15 14 14 13 12 12 11 10 10 9 8 7 6 5 6 5 3 1 3 4 7 9 10 9 7 6 5 4 4 3 3 5 6 9 14 16 14 11 9 8 8 5 5 4 4 8 9 6 5 3 2 3 6 10 11 10 11 11 10 9 9 8 8 8 8 9 8 8
20 19 19 18 17 16 15 15 14 13 13 13 13 13 13 13 13 14 14 13 12 12 12 11 10 9 9 8 7 6 5 4 4 3 3 4 4 5 7 9 10 9 7 6 4 4 3 3 3 5 9 14 16 14 12 9 8 8 4 2 2 3 7 8 6 5 3 2 2 5 8 9 10 12 11 10 10 9 9 9 9 9 9 9 9
20 19 19 18 16 16 15 14 13 13 13 14 14 14 14 13 13 13 14 13 12 12 12 11 10 9 8 8 7 7 6 6 6 6 5 5 4 5 5 8 11 10 9 7 6 5 4 3 3 5 9 14 16 14 13 9 6 6 5 1 3 1 5 7 7 6 4 2 2 4 7 8 11 12 11 11 11 10 10 9 9 9 9 10 10
20 19 18 17 17 17 16 15 13 12 12 14 14 14 14 14 15 14 13 13 13 13 12 11 10 10 9 9 9 8 7 6 7 9 7 6 6 4 5 7 10 11 11 9 7 6 4 4 3 4 7 11 13 13 12 8 3 4 5 3 6 4 4 7 9 8 5 3 2 4 6 9 11 12 12 11 11 11 10 10 10 10 10 10 10
21 19 18 18 18 18 17 16 14 12 12 13 14 15 15 15 14 13 13 12 12 13 13 12 11 11 10 10 10 9 8 7 8 10 10 8 6 5 5 7 9 10 12 11 9 7 6 5 4 4 5 8 9 10 10 7 6 5 5 6 9 8 6 8 11 10 6 3 2 4 7 9 11 11 11 12 12 11 11 11 10 10 11 10 10
21 19 18 18 19 19 18 17 16 13 12 12 13 14 14 13 13 12 12 11 11 12 12 11 11 11 12 12 12 11 10 9 9 11 11 10 9 7 6 6 8 9 10 11 11 9 8 7 6 6 7 8 9 10 10 10 9 9 8 8 11 11 9 10 12 11 8 4 3 4 6 8 9 11 11 12 12 11 12 11 11 11 11 10 10
21 20 19 19 19 19 18 17 17 15 12 12 12 13 13 12 12 11 10 11 11 11 11 11 12 12 13 14 14 13 11 10 10 10 11 11 11 10 9 8 8 8 9 10 11 10 10 9 9 10 10 11 11 12 13 13 11 12 11 9 11 13 12 13 13 12 10 7 5 5 6 7 9 11 11 12 12 12 12 12 12 12 11 11 10
21 19 18 18 18 18 17 17 16 15 14 13 13 13 14 13 11 10 10 10 10 10 11 12 13 13 13 14 15 14 12 11 10 10 11 12 12 12 12 11 9 9 9 10 11 11 11 11 11 12 14 14 15 15 15 15 15 15 14 11 11 13 13 13 15 14 11 9 7 6 6 7 10 12 11 12 13 12 12 12 13 13 12 11 10
20 19 17 17 17 16 16 17 16 16 16 15 14 13 13 13 12 11 11 11 10 11 12 12 13 13 12 12 13 13 13 12 11 11 12 12 13 14 13 14 13 11 10 11 11 12 13 14 14 14 14 14 15 16 16 16 16 16 16 13 9 10 12 11 14 14 13 11 9 8 8 8 10 11 11 12 13 13 13 12 12 12 12 12 12
20 19 17 16 16 15 15 16 16 16 15 15 13 13 13 12 12 12 12 12 11 10 11 12 12 12 11 10 10 11 12 12 12 12 13 13 14 14 14 15 15 14 12 12 12 13 14 15 16 16 15 15 15 16 16 17 18 17 18 15 10 10 13 11 12 13 13 13 11 10 9 9 9 11 13 13 13 13 13 13 12 12 13 13 13
19 19 18 16 15 15 15 15 14 14 14 13 12 12 13 11 9 9 9 11 11 10 10 10 10 10 11 11 10 9 10 11 12 13 13 14 14 14 15 15 15 15 15 14 14 15 16 17 17 18 18 18 19 19 18 18 20 19 18 17 12 12 16 14 13 13 13 14 13 11 10 10 10 12 13 13 13 13 13 14 13 13 13 13 13
18 18 18 17 16 15 15 15 14 13 13 12 12 12 11 10 8 7 7 8 9 10 10 10 10 10 10 11 10 10 10 11 12 12 13 13 14 14 14 14 14 15 16 16 15 15 17 18 18 18 19 20 22 22 21 20 20 20 20 20 16 13 16 17 14 14 14 14 14 13 12 11 12 13 13 13 14 15 15 13 13 13 13 13 13
17 17 17 17 16 15 15 14 13 12 11 11 12 12 11 9 9 8 7 7 8 9 10 10 10 10 10 11 10 10 10 11 11 11 12 13 13 14 13 13 13 14 16 16 15 15 15 17 17 18 19 20 22 23 22 21 19 18 19 22 19 14 13 17 18 18 16 15 15 14 13 12 13 14 14 14 14 16 17 15 14 15 14 13 13
15 15 15 15 13 13 13 12 11 10 10 11 12 11 10 9 9 8 7 8 8 9 10 10 10 11 11 11 10 11 10 10 10 11 12 13 13 14 13 13 13 14 15 16 17 17 16 16 16 17 18 19 21 22 22 20 18 16 17 20 20 15 12 15 20 22 18 15 16 15 14 14 14 15 15 15 15 16 16 17 17 16 15 14 13
13 13 13 12 11 11 11 10 9 8 9 11 12 11 10 9 9 8 8 9 8 8 9 10 11 12 12 11 11 11 11 10 10 11 13 14 14 14 14 13 13 14 15 16 16 17 16 16 17 17 17 17 17 19 20 19 18 17 16 18 19 18 15 13 15 18 18 17 17 17 16 16 16 16 16 15 15 16 16 17 18 17 15 13 14
13 12 11 11 11 11 10 8 7 8 9 10 10 9 9 8 8 8 9 10 10 10 9 10 12 13 13 12 12 11 11 12 12 13 14 15 16 15 15 13 13 14 15 15 15 15 16 17 18 18 17 17 17 18 18 18 19 19 18 17 16 17 17 16 16 14 14 16 18 18 17 18 18 18 18 16 16 17 17 17 18 19 16 14 15
14 12 11 11 11 11 10 9 7 7 8 7 7 6 6 6 7 7 8 9 10 10 10 11 12 12 13 12 12 13 13 14 14 14 15 16 16 16 16 14 14 14 14 14 14 15 17 18 19 20 19 19 20 20 19 19 19 20 20 19 17 15 16 18 20 17 14 15 17 18 19 20 19 19 19 17 16 18 17 18 20 21 19 16 17
17 13 12 11 11 11 10 9 7 5 4 4 4 4 5 6 6 7 8 8 9 10 11 12 11 9 10 11 12 13 14 14 15 16 17 16 16 17 17 16 16 14 13 14 17 18 19 19 19 20 21 21 21 21 20 20 19 20 22 22 20 17 16 17 19 19 16 14 15 18 20 22 21 21 21 18 17 18 18 19 20 22 21 18 18
19 17 15 15 14 13 13 12 10 7 5 3 1 1 3 5 6 7 9 9 9 11 11 10 9 8 8 9 10 11 12 13 14 16 16 16 17 18 18 19 18 15 15 17 20 21 20 20 19 20 20 21 22 21 19 18 16 15 17 19 22 22 20 19 18 20 20 17 16 17 20 24 24 23 22 20 19 19 19 19 20 22 22 20 19
19 19 18 18 17 16 16 15 13 11 11 8 6 4 4 5 6 7 9 10 11 12 12 11 11 11 10 11 11 11 11 12 12 13 15 16 17 19 20 20 18 15 17 20 21 21 20 20 20 20 21 20 20 20 18 15 13 12 11 9 14 19 21 21 20 19 21 21 20 19 21 26 25 24 24 22 20 20 20 20 21 21 22 22 21
19 20 19 19 19 18 18 16 15 13 13 11 9 8 6 6 7 8 9 10 10 12 13 12 12 13 12 11 12 12 11 12 12 12 14 15 16 18 19 19 17 16 18 20 20 20 20 21 22 22 22 21 20 21 20 16 15 12 7 3 4 7 12 16 18 20 21 22 24 23 23 25 25 24 26 24 22 23 22 21 21 21 22 23 23
21 20 19 19 18 18 17 16 15 14 13 11 9 9 7 5 4 6 7 9 10 11 11 10 11 12 10 10 11 11 12 12 13 13 14 14 14 15 16 17 17 17 18 19 20 20 20 22 22 22 22 21 20 21 21 20 19 13 5 2 1 1 5 7 11 19 22 22 23 24 24 24 24 25 27 26 24 24 24 23 22 22 21 22 23
22 21 20 19 18 17 16 15 14 13 12 11 10 8 7 7 7 6 6 8 10 12 12 13 14 14 13 13 13 12 13 13 14 15 15 14 13 13 14 16 18 19 18 19 21 21 21 22 23 23 23 23 21 21 20 20 23 22 15 7 2 1 4 3 5 11 18 23 25 23 24 24 24 27 29 28 26 26 26 25 24 22 22 22 22
19 20 20 19 19 16 14 13 13 12 11 11 10 9 9 10 10 10 11 11 11 12 12 13 15 16 17 16 14 14 13 13 13 14 14 13 13 12 13 15 18 20 20 20 21 22 23 24 24 24 24 25 24 21 20 20 21 24 25 22 16 11 5 3 3 3 8 19 24 24 24 23 25 28 29 28 28 30 28 26 25 24 22 22 22
17 18 19 18 18 17 15 13 12 11 11 11 11 11 11 12 12 12 13 13 13 12 11 11 11 13 15 15 14 15 14 14 13 13 13 13 12 12 13 16 17 18 19 20 21 22 23 23 23 24 24 25 24 22 23 23 20 22 26 29 30 26 17 9 6 2 3 9 16 23 25 25 25 27 29 30 31 32 30 28 26 25 24 23 23
16 17 17 17 17 16 15 13 12 11 11 10 11 12 13 13 13 13 13 13 12 12 12 12 12 12 12 13 13 14 15 15 16 15 15 14 14 13 13 14 16 16 17 19 20 21 22 22 21 22 23 24 23 23 25 24 21 21 23 24 28 30 27 21 15 9 3 2 7 14 21 25 27 28 29 30 32 33 31 29 28 26 26 26 25
16 16 15 16 17 16 13 11 11 11 10 10 10 11 12 13 13 13 14 13 12 12 13 13 12 12 12 12 12 13 13 15 17 18 17 17 16 16 15 14 15 14 15 16 18 19 20 21 21 21 22 23 24 24 25 26 25 24 22 20 23 27 28 27 24 17 8 5 4 5 11 18 22 27 30 29 32 33 30 29 29 28 27 27 27
14 13 13 13 14 15 13 12 11 9 9 9 9 11 12 13 14 14 15 14 14 13 13 14 14 13 13 13 13 12 12 12 14 15 16 16 15 15 16 15 15 14 14 16 17 18 19 20 22 23 24 25 25 25 26 28 29 28 26 22 20 22 20 18 20 19 12 8 6 4 9 13 12 20 27 29 31 32 30 29 28 27 27 26 27
13 11 12 12 13 14 12 12 11 10 9 7 7 8 11 13 14 15 16 16 15 15 15 16 16 15 15 15 14 13 12 12 12 12 14 14 15 15 15 15 14 15 16 17 17 18 19 19 21 22 23 24 25 25 27 29 29 29 28 26 24 23 20 16 18 21 15 9 7 4 8 15 14 15 21 27 31 30 29 29 27 26 27 26 27
Wind_Direction
134 138 142 147 143 142 139 142 144 145 142 140 136 127 118 109 103 99 107 109 111 112 110 107 102 99 96 97 98 97 97 96 96 97 96 95 97 98 99 98 98 97 97 96 95 95 94 92 91 93 94 93 95 97 98 98 98 97 97 96 93 87 81 77 76 80 88 95 94 88 85 87 86 80 81 86 85 84 85 85 85 84 83 82 81
141 142 144 145 143 141 140 141 143 145 143 142 136 128 118 111 105 102 111 112 114 115 113 109 104 102 100 100 99 99 98 97 96 97 98 98 99 99 99 99 99 97 96 96 96 94 93 93 93 94 94 97 101 103 103 101 100 97 96 96 95 88 81 77 72 76 91 97 93 89 87 87 87 84 84 86 87 87 86 85 85 85 84 83 82
138 142 144 144 143 142 141 140 143 146 145 144 136 129 119 114 107 106 114 115 117 116 113 110 106 104 103 103 101 100 98 97 97 97 98 98 99 99 99 98 98 97 96 95 94 92 92 92 93 95 96 104 108 109 106 103 101 98 99 100 100 94 87 83 79 79 88 94 92 91 89 88 92 91 86 83 88 90 87 85 85 85 86 87 85
136 141 142 144 143 143 142 141 143 147 148 145 137 129 122 118 109 109 116 118 119 117 114 110 107 105 103 104 102 101 99 99 98 98 98 97 99 99 99 99 99 98 97 95 94 94 94 94 94 95 102 112 113 110 104 101 100 99 102 104 103 99 90 86 84 83 85 91 93 94 92 90 90 89 83 82 88 91 91 89 87 86 87 86 87
136 140 143 145 145 144 143 142 145 148 150 145 138 131 125 121 112 113 118 120 121 116 113 110 107 106 105 104 102 102 102 102 101 101 100 99 99 98 98 97 98 97 96 95 95 94 94 95 96 96 108 117 113 107 101 99 101 101 103 105 107 106 100 91 84 83 86 92 97 97 95 93 90 88 86 85 86 88 90 89 88 88 88 86 87
138 142 144 146 146 145 143 143 146 148 150 145 139 132 129 125 116 114 118 121 120 116 112 109 106 107 106 104 104 104 104 105 104 103 102 101 99 98 96 94 94 94 93 92 93 93 92 93 95 99 112 120 113 105 100 100 102 101 102 105 109 115 117 102 75 76 86 93 99 99 97 94 91 90 90 90 88 89 89 89 90 90 90 89 89
140 144 145 146 146 145 144 144 146 148 148 145 140 135 133 128 120 116 118 121 120 116 114 111 107 107 106 106 106 106 107 107 107 107 105 103 100 98 95 94 91 90 89 87 88 89 92 94 98 106 116 123 118 110 105 104 101 102 106 107 110 116 122 117 74 81 89 95 99 100 98 96 94 94 94 94 93 93 91 91 94 93 94 92 90
142 145 146 145 144 145 145 145 146 149 148 146 142 138 137 132 123 119 120 119 119 117 116 114 110 109 107 108 109 109 110 109 110 109 108 105 102 100 98 97 95 93 92 91 91 90 92 96 102 110 118 126 129 125 118 112 107 107 106 103 97 86 78 59 135 119 106 104 106 106 106 103 101 102 100 98 97 97 98 96 95 94 97 95 92
144 146 146 144 143 145 145 146 147 149 150 148 145 141 141 135 127 125 124 120 119 119 117 115 114 113 111 110 111 112 113 114 115 113 112 109 106 105 102 100 99 96 93 95 96 94 95 96 102 105 112 124 137 140 135 132 130 123 107 94 72 63 64 85 139 140 128 115 110 109 113 111 108 108 105 103 103 103 106 104 99 96 97 96 93
144 146 147 144 144 147 147 147 149 151 152 150 147 143 142 139 132 129 127 122 120 120 119 118 118 119 117 115 114 115 117 118 119 116 113 108 105 100 97 98 101 98 92 92 90 91 94 101 105 97 98 111 129 140 142 143 141 133 111 89 72 77 94 114 129 132 127 116 108 110 117 118 114 112 104 105 108 103 105 104 100 98 97 95 92
146 148 147 145 146 149 148 149 151 152 153 151 147 143 143 140 134 131 129 125 121 121 123 124 123 124 123 121 120 120 120 120 118 115 112 108 102 91 85 90 98 101 100 97 91 90 89 97 103 93 93 103 123 135 141 143 138 125 104 80 75 94 111 122 128 126 126 117 110 115 115 114 112 110 102 103 110 106 104 104 102 100 98 96 92
150 150 147 146 148 150 149 150 151 152 153 150 145 142 143 140 135 133 131 127 124 126 130 131 129 129 128 127 128 124 122 122 118 115 111 107 98 88 85 87 93 100 102 95 87 83 78 83 90 95 106 119 130 137 140 138 131 114 92 73 81 112 125 129 132 128 130 121 119 124 117 111 110 113 103 100 110 111 107 106 105 101 99 98 96
150 148 146 147 149 150 149 149 149 149 149 145 141 141 143 140 136 135 135 131 131 135 137 139 139 136 131 129 131 129 127 125 123 119 113 106 97 90 91 95 101 104 97 87 80 75 71 74 87 104 123 134 139 141 141 134 121 103 81 73 90 124 139 137 136 133 130 126 127 127 120 115 111 113 110 106 110 112 110 106 104 102 100 98 101
144 144 145 147 148 148 147 146 146 144 142 139 139 141 142 142 140 141 141 139 139 141 141 142 144 142 134 131 132 133 133 131 129 125 114 104 94 89 94 101 107 106 96 86 77 69 66 71 92 118 136 143 146 146 142 131 117 98 78 76 96 128 145 147 144 140 132 131 130 126 121 118 114 109 108 112 110 111 111 106 104 103 100 97 98
141 143 145 146 144 143 143 142 143 140 137 136 139 141 142 144 146 146 145 146 146 146 145 146 148 146 139 136 137 136 136 137 137 131 118 104 91 88 101 107 110 109 100 88 77 66 60 68 93 126 144 149 152 151 141 130 120 96 79 78 102 135 149 155 151 144 137 136 134 129 122 116 118 112 109 114 110 109 110 106 104 103 102 97 96
141 142 143 144 142 140 139 140 142 140 136 136 140 141 143 145 146 148 148 151 154 154 152 152 154 151 145 144 146 142 142 147 145 137 126 110 96 100 120 118 117 120 109 92 77 66 56 63 93 132 150 155 157 152 142 134 119 94 79 72 111 147 156 162 155 145 139 140 140 134 127 121 120 116 115 117 112 109 108 106 104 102 103 98 94
143 142 143 142 142 139 139 140 139 136 135 136 139 141 144 145 148 150 151 156 160 160 159 158 159 156 153 155 156 155 155 161 162 158 149 131 115 123 141 135 129 130 119 104 83 70 59 63 93 135 154 159 162 154 145 135 114 94 73 63 116 158 165 165 157 147 142 145 146 141 135 130 128 123 120 120 117 117 114 106 104 103 103 100 95
140 142 142 141 141 139 139 138 137 137 137 138 139 143 145 148 152 153 153 156 161 165 166 163 161 160 161 166 167 170 175 181 186 184 174 157 142 149 156 150 141 133 122 112 97 79 66 67 90 131 158 165 165 158 149 133 114 92 68 67 116 158 167 166 159 149 146 147 150 148 137 131 136 134 126 124 122 120 117 108 107 108 104 102 97
138 141 141 143 144 140 139 140 142 142 140 140 142 144 146 151 153 151 148 149 154 159 164 162 159 161 164 170 173 179 189 197 200 196 184 168 158 168 168 160 149 137 127 111 100 88 73 72 90 124 159 169 168 161 151 135 118 91 75 79 114 152 165 167 162 153 147 144 149 146 137 136 138 135 129 127 124 118 118 116 115 114 109 104 101
137 141 142 146 144 141 143 145 147 146 145 143 144 145 144 149 151 149 146 144 143 139 146 156 161 165 166 170 176 180 189 203 209 205 191 173 163 174 177 166 155 143 133 112 95 87 79 77 90 119 155 171 171 162 152 138 120 97 87 86 112 153 166 169 164 153 147 141 146 145 145 143 134 132 133 131 128 124 124 123 121 118 113 109 108
135 139 142 144 143 143 144 146 149 150 149 146 148 149 146 151 152 150 149 145 141 139 145 153 162 167 169 173 176 177 180 193 205 200 194 182 168 173 182 174 161 152 139 122 101 87 81 79 92 117 150 169 170 163 154 142 122 106 97 84 99 155 166 170 168 157 152 147 152 156 152 142 135 139 139 134 133 131 131 129 127 125 119 113 113
135 141 142 143 144 143 143 145 148 151 153 150 153 155 155 158 157 157 157 152 149 155 159 161 169 170 174 179 177 177 174 172 166 159 178 187 173 174 185 183 168 161 152 138 117 98 85 82 95 119 148 165 170 165 155 145 131 119 101 69 73 149 170 174 176 170 165 156 164 162 148 143 145 146 140 139 139 136 134 133 136 133 128 124 120
133 140 145 148 147 144 144 146 146 151 156 156 157 158 160 162 163 164 164 162 159 164 170 172 178 180 185 188 184 187 180 171 150 125 156 200 193 184 188 190 183 174 166 157 138 119 106 97 101 122 149 163 168 165 155 149 147 141 110 58 65 135 174 182 184 186 178 160 171 163 156 158 156 148 144 147 146 143 139 135 135 135 136 132 125
131 139 149 152 151 149 149 151 150 153 157 160 161 159 161 166 169 169 169 170 169 173 179 181 183 188 194 196 198 205 211 205 183 169 182 198 211 203 196 197 197 193 185 177 164 147 133 135 122 129 149 159 163 161 155 150 154 162 148 50 40 127 171 191 199 201 194 181 176 169 169 165 154 151 153 154 152 150 146 142 139 140 141 133 129
136 141 149 155 159 160 160 160 158 158 161 162 161 160 162 170 175 176 177 178 181 186 190 191 189 194 202 206 208 214 227 235 229 220 203 189 199 212 211 206 205 206 203 194 186 179 162 170 167 148 153 159 163 163 159 150 146 171 177 258 299 199 180 206 218 214 200 195 186 184 177 160 157 161 161 159 156 153 152 151 146 146 142 136 133
143 144 149 156 164 168 168 166 166 164 166 165 161 162 166 175 180 181 183 183 189 196 199 201 199 202 212 220 220 220 229 244 242 236 231 207 194 200 219 221 215 212 212 209 202 201 193 193 207 192 175 171 173 175 176 175 173 182 188 253 284 273 223 218 221 215 204 204 200 192 175 164 170 170 165 163 159 158 157 154 152 149 144 141 138
147 149 153 159 167 172 174 172 171 168 167 170 166 165 170 177 181 183 186 188 193 199 202 204 208 212 220 232 236 233 233 243 239 235 242 237 222 210 211 230 231 221 214 211 210 215 216 212 221 229 221 208 203 200 204 224 237 218 207 242 270 271 245 222 219 216 207 207 205 192 179 176 179 176 170 167 163 163 161 157 154 150 147 146 144
149 152 160 166 171 175 179 175 174 174 173 176 175 175 179 180 184 187 188 193 200 205 207 210 219 226 230 238 244 242 236 239 241 239 243 248 249 242 226 226 235 234 224 215 212 216 224 227 235 249 250 242 240 241 248 259 258 247 232 234 258 260 242 224 220 220 213 208 216 188 178 180 178 180 178 170 169 168 164 161 157 153 151 149 149
153 155 164 171 174 178 182 179 178 182 185 188 188 189 190 190 192 194 195 202 209 214 219 223 231 238 240 242 243 243 238 238 246 246 245 250 255 257 253 242 236 235 233 228 222 220 226 234 247 262 264 255 255 261 266 269 271 266 248 237 254 252 241 231 223 222 216 208 221 199 183 181 178 188 188 175 175 171 168 166 160 157 153 152 155
155 158 166 173 176 178 181 183 184 190 196 200 203 202 201 202 201 202 211 218 223 226 228 231 235 240 246 247 243 242 243 244 248 249 247 251 256 259 261 260 254 237 230 233 233 232 233 236 247 265 270 262 263 268 272 273 276 274 253 242 255 249 241 236 227 224 217 212 221 208 193 189 189 197 194 180 177 174 174 170 164 161 157 157 161
157 161 165 171 176 178 178 182 186 192 200 206 212 213 211 211 209 212 225 232 233 232 231 236 241 244 250 250 247 248 252 253 254 255 253 251 253 258 262 265 263 252 241 237 236 238 240 243 247 260 268 263 264 265 267 270 273 270 251 243 256 243 232 227 223 221 216 217 224 213 198 196 202 202 193 184 180 179 177 173 169 166 164 164 164
158 158 157 161 169 173 173 177 184 190 199 206 212 218 218 218 218 219 229 237 238 237 238 244 250 250 250 251 254 259 260 258 259 261 260 257 254 259 263 265 266 263 257 251 249 247 247 250 252 257 263 263 263 261 264 268 270 266 249 247 255 237 227 221 218 218 217 219 220 214 203 203 208 201 195 195 190 184 179 176 178 174 173 173 168
159 156 153 155 160 166 170 175 181 187 192 195 199 212 220 223 225 222 229 241 244 249 252 253 254 253 254 256 257 259 258 256 258 262 263 261 259 261 265 268 269 266 263 261 258 255 254 255 256 257 260 264 266 265 267 269 269 263 249 246 254 244 230 224 220 219 220 220 217 213 207 209 209 200 199 202 195 186 182 179 179 180 180 180 174
155 154 154 157 161 165 169 171 174 179 179 181 188 202 218 225 228 228 231 238 245 254 259 258 254 253 255 256 253 253 255 255 258 262 264 264 263 264 268 271 269 265 265 265 261 258 258 259 262 262 262 265 267 268 269 271 270 262 250 244 254 259 230 219 226 226 226 224 218 214 211 210 208 204 202 202 192 186 188 181 178 187 186 182 179
152 154 155 159 165 166 167 168 171 175 171 174 184 196 216 228 233 238 239 241 246 253 257 258 254 253 255 252 252 255 259 262 263 265 266 267 268 268 272 275 272 267 264 265 263 261 263 265 268 268 268 268 268 269 269 271 270 262 255 248 253 266 238 228 236 230 226 224 217 217 215 211 207 207 206 202 194 190 190 183 183 194 190 186 182
153 154 154 157 163 166 168 167 169 180 178 175 184 199 216 228 236 241 241 238 239 246 253 259 258 258 257 251 252 258 262 268 271 274 276 276 275 274 278 280 277 273 270 269 267 266 271 276 277 274 271 268 267 268 267 266 266 261 260 255 253 260 249 238 238 227 217 216 215 216 217 212 208 208 208 205 198 193 191 184 188 198 197 192 182
147 147 148 153 157 163 169 164 166 182 184 178 184 203 216 226 241 251 258 251 247 251 255 266 272 269 264 256 257 264 270 277 280 284 287 285 284 284 286 286 282 279 279 278 274 272 277 282 284 281 278 273 266 264 263 262 264 265 267 264 258 259 255 240 235 227 215 212 213 214 216 213 209 208 208 207 201 196 194 188 191 204 207 196 183
134 133 134 139 144 152 157 149 153 170 177 177 181 198 214 226 243 259 268 267 269 269 266 277 283 279 272 268 268 270 273 278 280 284 288 288 287 289 291 292 290 287 285 285 283 278 279 280 280 279 279 277 271 266 264 263 264 264 267 270 267 261 256 242 232 232 225 220 218 216 217 214 210 210 207 206 204 200 198 195 195 206 212 200 189
119 121 121 123 126 131 137 132 136 151 163 170 171 191 221 237 247 258 264 269 277 277 280 288 289 284 280 278 273 269 270 274 278 280 282 283 286 290 292 293 293 292 290 290 289 284 281 278 274 273 272 273 273 270 266 265 264 261 258 265 270 257 245 236 227 227 229 229 228 227 224 216 211 212 210 207 205 203 203 201 199 205 211 204 195
106 109 108 106 102 105 113 110 114 127 141 162 173 201 245 264 266 274 276 277 283 285 290 292 288 283 283 286 280 273 273 276 281 282 281 281 285 289 290 290 290 289 289 287 285 283 280 279 276 273 272 271 272 269 267 266 265 264 260 261 266 259 248 244 236 231 231 227 228 234 233 223 215 213 213 211 208 207 208 207 205 208 212 208 200
96 98 90 85 83 84 89 87 84 83 81 81 74 265 286 300 298 298 297 297 298 298 303 303 300 295 287 290 288 277 274 277 282 284 284 285 286 287 286 285 285 285 284 281 278 278 278 281 282 279 275 273 272 272 271 267 263 264 263 261 262 260 259 260 250 239 237 233 225 228 233 230 223 216 216 214 209 210 212 213 213 212 215 214 207
83 88 82 79 80 80 80 76 73 71 66 57 41 19 337 324 317 314 313 311 309 309 312 316 321 318 309 306 300 285 277 282 287 286 285 285 287 286 283 282 283 282 277 272 271 274 276 278 279 277 275 274 275 278 274 265 256 253 257 267 267 264 263 263 256 242 238 241 236 229 232 234 229 221 220 216 211 212 215 217 219 218 218 219 213
75 80 79 78 79 78 76 72 68 64 59 54 47 35 11 335 317 320 328 327 325 323 318 317 321 318 314 317 317 307 298 300 302 300 296 291 287 284 283 283 280 273 269 269 269 271 272 272 272 273 274 273 272 274 271 263 254 251 252 264 272 272 266 257 251 243 237 237 235 229 230 234 230 221 220 219 214 215 219 219 221 222 220 221 218
70 71 73 73 72 71 70 67 63 57 53 51 49 47 39 21 350 331 335 339 340 339 333 328 330 327 324 329 333 329 321 320 320 318 315 308 297 291 289 286 280 274 274 277 278 275 273 273 272 271 271 268 266 267 268 262 252 243 230 235 216 259 266 246 240 244 238 231 227 224 225 230 229 220 218 219 218 218 222 222 221 223 222 221 220
66 65 67 69 68 68 66 63 59 52 47 45 43 47 53 55 59 52 24 10 5 2 355 349 351 352 346 338 336 334 326 324 327 329 330 326 315 305 294 285 283 283 283 281 280 280 278 274 273 271 268 265 263 265 265 262 256 246 232 228 210 226 259 232 230 248 236 226 225 222 221 224 225 221 219 220 219 220 223 224 222 222 221 220 220
67 67 68 69 69 68 66 63 58 51 44 42 40 45 52 54 60 62 53 43 35 25 13 3 360 1 360 350 343 341 332 325 330 335 338 337 328 314 297 287 284 283 284 283 281 281 278 275 274 273 271 267 262 261 262 260 260 254 243 238 239 241 248 196 199 266 238 225 224 221 220 221 221 219 219 220 220 221 222 222 221 221 220 219 219
70 72 71 69 70 69 67 62 57 54 49 46 44 48 53 55 61 64 60 57 52 43 39 36 25 20 18 10 360 355 345 340 347 348 345 345 335 317 301 295 292 289 290 288 284 283 281 280 280 277 276 274 266 261 262 259 257 258 251 244 242 241 240 227 207 227 248 226 220 222 224 223 221 218 218 220 221 221 220 219 219 220 220 221 221
70 71 67 66 66 64 59 54 51 50 47 48 49 51 56 57 59 60 58 57 52 47 47 45 41 40 39 32 23 14 1 355 0 1 358 356 347 335 322 307 302 301 297 290 287 288 286 283 283 281 276 275 272 266 264 262 255 255 252 245 243 240 238 235 229 220 216 214 213 218 222 223 222 221 220 222 224 223 220 218 219 218 220 223 224
68 67 64 65 65 60 56 49 43 40 39 45 47 48 54 57 57 54 52 49 44 46 45 39 36 35 33 33 33 29 19 8 4 4 3 358 350 345 340 325 313 309 303 297 296 293 287 283 282 281 276 274 275 270 266 265 261 259 256 247 242 240 236 234 231 227 223 220 212 205 210 215 220 221 222 224 226 226 223 221 220 219 220 222 224
70 65 63 65 66 64 63 54 43 36 35 40 41 40 42 49 53 50 46 43 38 39 39 33 29 24 21 22 24 25 22 14 8 6 6 4 358 350 342 329 318 312 309 308 304 298 292 287 283 281 280 278 277 272 268 268 265 261 259 251 237 232 231 229 226 224 222 220 224 215 200 200 208 218 220 222 224 226 225 223 220 220 221 222 223
75 74 74 72 68 68 69 64 56 49 40 29 27 30 34 41 47 48 46 42 39 36 33 29 23 18 16 15 16 14 11 10 7 6 7 7 7 3 353 339 326 318 316 314 308 302 296 291 287 283 282 281 279 274 270 269 265 258 256 251 239 231 227 223 220 218 216 214 217 220 207 205 207 213 218 221 224 225 225 222 221 222 221 221 221